This demonstration page uses our WeatherBlox Daily Observations layout. Learn more.

Left ArrowRight Arrow

30.21309, -93.2044

Hourly Observations for May 10, 2022

Temp ( °F °C ) Dew Point ( °F °C ) Humidity (%) Winds ( mph kmh ) Pressure ( in mb ) Visibility ( mi km ) Precip ( " mm )
12:15 am 00:15 Partly Cloudy 74 23.6 72 22.1 91 91 SSE 7 11 30.00 1016 10 16 0.00 0.00
12:35 am 00:35 Partly Cloudy 73 22.9 71 21.7 93 93 SSE 6 9 30.00 1016 10 16 0.00 0.00
12:55 am 00:55 Partly Cloudy 73 23 71 21.8 93 93 S 5 7 30.00 1016 10 16 0.00 0.00
1:15 am 01:15 Clear 73 22.6 71 21.5 94 94 S 6 9 30.00 1016 10 16 0.00 0.00
1:35 am 01:35 Partly Cloudy 72 22.3 70 21.3 94 94 SSE 5 7 30.00 1016 7 11 0.00 0.00
1:55 am 01:55 Partly Cloudy with Mist and Fog 71 21.8 70 21 95 95 S 6 9 30.00 1016 4 6 0.00 0.00
2:15 am 02:15 Partly Cloudy with Mist and Fog 71 21.6 69 20.8 95 95 S 5 7 29.99 1016 7 11 0.00 0.00
2:35 am 02:35 Clear 71 21.9 70 21.1 95 95 SSE 7 11 29.99 1016 7 11 0.00 0.00
2:55 am 02:55 Clear 71 21.5 69 20.6 95 95 SSE 7 11 29.99 1016 7 11 0.00 0.00
3:15 am 03:15 Clear 71 21.8 70 20.9 95 95 SSE 6 9 29.99 1016 7 11 0.00 0.00
3:35 am 03:35 Partly Cloudy 71 21.9 70 21 95 95 SSE 6 9 29.99 1016 7 11 0.00 0.00
3:55 am 03:55 Partly Cloudy 71 21.7 69 20.8 95 95 S 6 9 29.99 1016 7 11 0.00 0.00
4:15 am 04:15 Clear with Mist and Fog 71 21.8 70 20.9 95 95 SSE 5 7 30.00 1016 7 11 0.00 0.00
4:35 am 04:35 Partly Cloudy with Mist and Fog 71 21.4 69 20.5 95 95 SSE 6 9 30.00 1016 5 8 0.00 0.00
4:55 am 04:55 Partly Cloudy with Mist and Fog 71 21.6 69 20.8 95 95 SSE 5 7 30.00 1016 5 8 0.00 0.00
5:15 am 05:15 Clear with Mist and Fog 71 21.9 70 21.1 95 95 SSE 5 7 30.00 1016 4 6 0.00 0.00
5:35 am 05:35 Partly Cloudy with Mist and Fog 72 22 70 21.2 95 95 ESE 3 6 30.01 1016 3 4 0.00 0.00
6:00 am 06:00 Partly Cloudy 72 22 70 21 94 94 Calm 30.02 1017 7 11 0.00 0.00
6:55 am 06:55 Partly Cloudy with Mist and Fog 72 22 72 22 100 100 Calm 30.05 1018 6 10 0.00 0.00
7:55 am 07:55 Mostly Sunny 75 24 73 23 94 94 SSE 8 13 30.07 1018 7 11 0.00 0.00
8:55 am 08:55 Mostly Sunny 75 24 73 23 94 94 SSE 8 13 30.07 1018 7 11 0.00 0.00
9:50 am 09:50 Mostly Cloudy 84 29 70 21 62 62 SSE 16 26 30.11 1020 10 16 0.00 0.00
10:49 am 10:49 Mostly Cloudy 86 30 70 21 59 59 SSE 16 26 30.12 1020 10 16 0.00 0.00
11:52 am 11:52 Mostly Cloudy 88 31 70 21 55 55 SSE 12 19 30.12 1020 10 16 0.00 0.00
12:45 pm 12:45 Mostly Cloudy 88 31 68 20 52 52 SE 14 22 30.11 1020 10 16 0.00 0.00
1:45 pm 13:45 Mostly Cloudy 90 32 70 21 52 52 SSE 12 19 30.10 1019 10 16 0.00 0.00
2:47 pm 14:47 Mostly Cloudy 88 31 66 19 49 49 Calm 30.09 1019 10 16 0.00 0.00
3:55 pm 15:55 Mostly Cloudy 88 31 66 19 49 49 ESE 8 13 30.07 1018 10 16 0.00 0.00
4:45 pm 16:45 Partly Cloudy 90 32 66 19 46 46 SSE 8 13 30.06 1018 10 16 0.00 0.00
5:52 pm 17:52 Partly Cloudy 88 31 70 21 55 55 SE 10 17 30.07 1018 10 16 0.00 0.00
6:45 pm 18:45 Mostly Sunny 84 29 72 22 66 66 SSE 12 19 30.06 1018 10 16 0.00 0.00
7:45 pm 19:45 Mostly Sunny 81 27 70 21 70 70 SSE 10 17 30.07 1018 10 16 0.00 0.00
8:54 pm 20:54 Mostly Clear 77 25 72 22 83 83 SSE 9 15 30.09 1019 10 16 0.00 0.00
9:51 pm 21:51 Mostly Clear 75 24 70 21 83 83 SSE 9 15 30.11 1020 10 16 0.00 0.00
10:15 pm 22:15 Clear 74 23.5 70 21.2 87 87 SSE 8 13 30.11 1020 10 16 0.00 0.00
10:35 pm 22:35 Clear 75 23.9 70 21.3 85 85 SSE 9 15 30.12 1020 10 16 0.00 0.00
10:55 pm 22:55 Clear 74 23.5 70 21.1 86 86 SSE 9 15 30.11 1020 10 16 0.00 0.00
11:15 pm 23:15 Clear 74 23.5 70 21.1 86 86 SSE 9 15 30.11 1020 10 16 0.00 0.00
11:35 pm 23:35 Clear 75 23.7 70 21.2 86 86 SSE 10 17 30.11 1020 10 16 0.00 0.00
11:55 pm 23:55 Clear 74 23.4 70 21.1 87 87 SSE 10 17 30.11 1020 10 16 0.00 0.00

Powered by AerisWeather